Tracking 17142 objects as of 27-May-2015
HD Live streaming from Space Station

SCOUT X-4 R/B

Track SCOUT X-4 R/B now!
10-day predictions
SCOUT X-4 R/B is classified as:


NORAD ID: 1739
Int'l Code: 1965-093B
Perigee: 662.1 km
Apogee: 797.4 km
Inclination: 59.7 °
Period: 99.2 minutes
Semi major axis: 7100 km
RCS: 0.5409 m2 (medium)
Launch date: November 19, 1965
Source: United States (US)

Note: This is a ROCKET BODY
Your satellite tracking list
Your tracking list is empty





NASA's NSSDC Master Catalog

Two Line Element Set (TLE):
1 01739U 65093B   15146.45780637  .00000103  00000-0  63602-4 0  9995
2 01739 059.7031 147.6079 0095271 095.1664 266.0259 14.50934011604374

Source of the keplerian elements: AFSPC

N2YO: 356